RADUGA 18 [-]

Last updated on Tue Jun 27 2023 01:03:02 GMT+0100 (British Summer Time)

1 16497U 86007A 23176.99771723 .00000052 00000+0 00000+0 0 9997 2 16497 12.2882 328.7235 0076489 172.7380 191.3844 0.98810859135179
UTC large
Height (km)
Speed (km/s)
/
Latitude / Longitude
Inclination (degrees)
Orbital Period (minutes)
Azimuth
Elevation
Range (km)
Doppler Factor

Next 0 passes for location: London (51.5072 / 0.1276)

Sorry there are no passes over London.